RH
96 95 93 97 89 96 98 93 85 82 80 80 75 68 65 63 59 51 49 37 23 15 10 8 8 8 9
95 92 94 85 90 93 90 87 95 76 61 44 25 14 9 7 7 7 8 10 10 10 10 10 10 10 10
96 97 97 96 96 97 97 93 62 38 25 17 12 10 10 11 11 12 12 13 14 15 16 16 16 17 17
36 47 96 99 98 97 78 42 25 18 14 12 13 14 14 14 15 16 17 19 20 20 20 20 20 20 20
17 28 47 59 55 35 23 14 12 14 15 15 17 17 17 18 19 20 21 20 20 21 23 23 22 21 21
13 12 13 15 14 13 12 14 17 18 20 19 19 19 21 22 22 22 22 23 25 26 24 22 22 23 22
13 14 13 14 14 14 15 16 16 18 19 20 22 23 23 23 23 24 25 28 26 21 22 25 30 32 31
14 15 17 18 18 17 17 17 18 19 21 24 24 24 24 24 25 27 31 28 21 21 29 33 33 32 36
16 16 17 17 17 18 18 18 19 20 23 25 26 24 24 25 28 31 34 26 23 28 30 37 38 39 39
19 18 18 18 18 18 18 19 21 24 25 30 26 25 26 28 29 29 30 30 30 27 32 41 48 48 48
23 23 23 23 23 23 24 26 25 28 28 29 26 26 27 26 28 27 28 29 26 29 36 48 54 53 51
25 25 26 27 29 30 29 30 31 31 33 32 30 28 29 27 29 28 28 28 24 32 46 54 52 56 56
27 25 27 38 37 30 32 33 32 33 35 34 31 31 31 31 35 29 28 25 25 42 38 47 49 52 48
32 32 41 39 36 39 39 41 38 36 40 37 34 34 34 35 39 31 37 38 37 43 48 48 50 54 56
48 46 45 47 46 46 45 43 40 41 44 40 38 38 39 40 37 35 35 34 43 51 50 53 48 52 58
60 63 59 60 60 61 54 45 46 49 47 44 44 44 41 42 38 35 34 38 44 45 55 58 48 50 60
73 78 84 83 90 88 74 56 48 49 47 43 44 46 50 48 42 36 33 35 45 47 58 66 58 50 62
Wind_Speed
19 19 18 15 12 12 11 11 13 12 10 9 8 7 9 9 9 9 9 10 10 11 12 13 14 16 17
15 15 15 14 14 12 13 12 15 13 9 7 7 7 9 10 10 10 9 9 9 10 12 13 14 15 17
15 15 14 13 13 14 12 12 11 10 9 8 8 7 6 6 6 6 7 8 9 10 11 13 15 16 17
17 15 14 13 12 13 12 11 10 9 7 6 7 6 6 6 6 6 8 9 11 13 15 16 17 17 17
16 15 14 14 13 12 11 10 8 7 7 6 7 6 6 7 8 10 12 14 15 15 15 15 16 17 18
16 16 14 13 12 11 9 8 7 8 8 8 8 7 8 9 11 13 15 15 14 15 16 18 19 20 21
16 15 14 12 11 11 10 9 9 9 9 8 8 10 9 11 12 14 14 12 13 17 18 17 18 21 22
15 14 14 12 12 11 11 11 10 11 9 9 9 10 11 12 14 12 10 11 18 18 17 21 23 22 22
16 15 14 14 13 13 13 12 11 11 10 11 10 9 11 13 13 12 11 16 18 17 22 21 22 22 23
17 16 16 16 16 15 15 14 13 10 10 9 9 9 6 8 9 10 14 17 18 22 22 21 20 21 24
20 19 18 16 15 14 13 14 14 13 12 12 11 12 10 10 10 13 16 14 20 21 20 19 19 24 25
23 22 20 17 16 16 15 15 14 15 15 14 15 14 15 15 13 10 14 16 19 18 15 18 21 22 23
26 23 19 17 19 18 17 17 17 16 17 17 16 16 15 16 18 16 20 19 12 11 23 23 23 21 22
25 20 21 22 20 19 18 17 17 17 18 18 17 17 17 15 18 19 17 17 18 20 24 25 22 20 22
26 24 23 22 21 19 18 18 17 17 17 18 18 18 17 17 19 16 18 20 19 22 26 29 24 21 19
27 24 23 22 20 20 19 18 16 16 17 18 19 19 18 16 17 16 18 20 20 21 23 28 29 22 20
30 26 24 22 22 21 20 18 16 13 15 18 17 17 16 17 16 15 18 21 23 22 22 23 27 24 22
Wind_Direction
292 300 302 297 292 298 300 302 306 313 309 301 295 299 295 293 293 293 298 292 289 286 283 282 282 279 275
284 288 294 298 295 289 288 297 295 300 299 295 300 317 317 324 322 320 316 305 300 296 291 288 282 277 275
276 271 275 277 278 280 278 280 291 302 305 309 309 300 298 300 299 301 299 297 296 292 289 287 286 286 283
278 276 265 262 262 263 269 273 278 281 287 293 293 292 290 294 298 297 297 295 294 292 292 291 291 290 287
272 271 266 263 262 262 264 266 267 262 270 283 285 286 293 299 301 299 298 295 295 295 296 300 302 299 295
274 272 270 265 262 259 256 255 262 257 254 269 269 270 279 290 299 298 295 298 301 303 307 306 304 304 302
273 275 272 264 257 257 257 257 259 266 270 269 260 267 281 293 294 289 289 288 298 303 302 300 302 302 300
267 265 264 264 260 257 261 265 267 270 269 274 268 266 282 291 289 287 262 284 306 310 309 309 306 304 301
263 260 259 257 260 266 265 266 270 272 266 270 272 273 289 287 281 275 264 301 307 307 308 304 304 303 300
266 264 262 262 262 260 263 262 262 276 269 260 273 293 299 293 277 277 282 299 300 306 305 304 304 306 307
260 261 261 261 262 262 262 263 264 263 268 276 281 284 283 283 289 287 288 291 300 300 299 297 302 308 306
257 257 259 263 267 265 264 262 263 266 270 272 277 283 287 292 296 286 295 298 300 295 287 301 307 304 301
253 256 260 260 259 261 265 263 262 263 268 272 274 279 284 288 296 306 311 315 306 296 300 306 313 312 306
254 253 248 249 257 262 264 263 263 262 265 270 271 275 281 290 295 307 311 306 305 308 306 311 314 314 310
251 246 247 249 252 256 256 260 265 268 268 267 267 273 280 288 292 301 301 306 309 311 312 312 317 321 318
252 251 250 250 252 252 251 256 262 263 264 264 268 275 281 286 291 300 302 305 308 313 315 315 316 327 325
251 248 251 251 251 251 250 254 254 258 263 264 266 271 279 291 297 304 310 310 313 317 317 317 314 323 326